Location: Beekmeers
(50.8953°N, 3.6968°E)
Time: 01:58:25
(UTC+00:00)

Cosmos 2322 Rocket - Pass Details

Date: 23 May 2024
Orbit: 832 x 850 km, 71.0° (Epoch: 16 June)

Event Time Altitude Azimuth Distance (km) Brightness Sun altitude
Rises 02:34:21 0° 325° (NW) 3,402 5.6 -9.0°
Reaches altitude 10° 02:36:56 10° 318° (NW) 2,466 4.7 -8.8°
Maximum altitude 02:42:06 38° 252° (WSW) 1,263 2.7 -8.2°
Drops below altitude 10° 02:47:17 10° 186° (S) 2,461 4.2 -7.7°
Sets 02:49:52 0° 178° (S) 3,395 4.9 -7.4°
